Miscellaneous Local Product
Issued by NWS North Platte, NE

Home | Current Version | Previous Version | Text Only | Print | Product List | Glossary On
Versions: 1 2 3 4 5 6 7 8 9 10 11 12 13 14 15 16 17 18 19 20 21 22 23 24 25 26 27 28 29 30 31 32 33 34 35 36 37 38 39 40 41 42 43 44 45 46 47 48 49 50
000
AXUS43 KLBF 271210
MISLBF


WESTERN AND NORTH CENTRAL NEBRASKA HOURLY WEATHER ROUNDUP
NATIONAL WEATHER SERVICE NORTH PLATTE NE
700 AM CDT THU APR 27 2017

NOTE: "FAIR" INDICATES FEW OR NO CLOUDS BELOW 12,000 FEET WITH NO
SIGNIFICANT WEATHER AND/OR OBSTRUCTIONS TO VISIBILITY.

NOTE: STATIONS NOT REPORTING VARIABLES SUCH AS SKY/WEATHER OR
PRESSURE ARE PROVIDED BY RAWS AND APRS NETWORKS AND ARE NOT UNDER
NATIONAL WEATHER SERVICE QUALITY CONTROL.

...OBSERVATIONS IN AND NEAR THE EASTERN PANHANDLE OF NEBRASKA...

CITY           SKY/WX    TMP DP  RH WIND       PRES   REMARKS
PINE RIDGE     PTCLDY    27  25  92 CALM      29.63S
CHADRON        CLOUDY    30  27  88 N5        29.61F WCI  25
ALLIANCE       CLEAR     29  26  89 E9        29.59F WCI  20
SIDNEY         CLOUDY    37  36  96 SE7       29.58F WCI  32
CRESCENT LAKE    N/A     50  30  46 E8          N/A
$$

...OBSERVATIONS IN NORTHERN NEBRASKA AND FAR SOUTHERN SOUTH DAKOTA...

CITY           SKY/WX    TMP DP  RH WIND       PRES   REMARKS
WINNER         FOG       24  21  88 W5        29.69S VSB 1/2 WCI  18
VALENTINE      CLEAR     21  17  84 W3        29.67S
THEDFORD       CLOUDY    26  24  96 W3        29.67R
AINSWORTH      CLEAR     26  25  96 W5        29.66S WCI  20
O`NEILL        CLEAR     26  24  89 N5        29.67S WCI  21
ORD            CLEAR     27  24  89 CALM      29.67S
BROKEN BOW     CLEAR     27  23  85 CALM      29.66F
VALENTINE NWR    N/A     27  25  93 CALM        N/A
HALSEY           N/A     25  24  93 CALM        N/A
BUTTE            N/A     27  26  94 N7          N/A  WCI  20
CHAMBERS         N/A     26  24  90 CALM        N/A
EWING            N/A     29  27  92 N5          N/A  WCI  24
$$

...OBSERVATIONS IN SOUTHWEST NEBRASKA AND FAR NORTHEAST COLORADO...

CITY           SKY/WX    TMP DP  RH WIND       PRES   REMARKS
HOLYOKE        FAIR      37  32  81 SE6       29.61S WCI  33
IMPERIAL       CLOUDY    35  29  78 SE10      29.62F WCI  27
OGALLALA       CLOUDY    35  31  87 E8        29.64S WCI  28
NORTH PLATTE   CLOUDY    35  32  88 E3        29.67S
MCCOOK         MOCLDY    31  29  92 E5        29.68R WCI  26
LEXINGTON      CLEAR     27  24  91 CALM      29.69S
STAPLETON        N/A     25  24  93 CALM        N/A
GOTHENBURG       N/A     33  29  84 CALM        N/A
CALLAWAY         N/A     29  26  88 NE3         N/A
$$

...OBSERVATIONS IN CENTRAL LINCOLN COUNTY AREA...

CITY           SKY/WX    TMP DP  RH WIND       PRES   REMARKS
N.P. AIRPORT   CLOUDY    35  32  88 E3        29.67S
N.P. DOWNTOWN    N/A     37  30  77 CALM        N/A
N.P. SOUTHEAST   N/A     35  30  82 CALM        N/A
N.P. HILLCREST   N/A     35  31  85 CALM        N/A
$$

...SOME OBSERVATIONS FROM AROUND THE REGION...

CITY           SKY/WX    TMP DP  RH WIND       PRES   REMARKS
DENVER         CLOUDY    40  34  79 SW10      29.55F WCI  33
LIMON          CLOUDY    36  35  96 CALM      29.58F
ASPEN          FLURRIES  33  32  96 CALM      29.63F
LARAMIE        FLURRIES  33  32  96 S7        29.57F WCI  27
CASPER         CLOUDY    39  36  89 S14       29.51F WCI  31
CHEYENNE       CLOUDY    38  34  85 W6        29.58S WCI  33
SCOTTSBLUFF    PTCLDY    36  33  89 E10       29.57S WCI  28
GRAND ISLAND   CLEAR     28  26  92 W9        29.70R WCI  19
OMAHA          CLOUDY    36  28  73 N9        29.68R WCI  29
SIOUX FALLS    CLOUDY    31  26  82 NW12      29.65R WCI  22
PIERRE         CLOUDY    30  26  85 N8        29.70F WCI  22
RAPID CITY     CLOUDY    24  22  91 CALM      29.64S
BISMARCK       CLOUDY    31  25  78 W5        29.75R WCI  26
KANSAS CITY    MOCLDY    42  33  70 W8        29.69R
HILL CITY      CLEAR     28  26  92 CALM      29.70S
WICHITA        PTCLDY    36  33  89 CALM      29.72R
DODGE CITY     CLOUDY    41  35  79 S8        29.68R
OKLAHOMA CITY  MOCLDY    42  40  92 S6        29.73F
DALLAS         CLOUDY    49  48  97 SE3       29.74S
AMARILLO       CLEAR     48  35  60 S18       29.68F
$$




USA.gov is the U.S. government's official web portal to all federal, state and local government web resources and services.